When you browse on this site, cookies collect data to enhance your experience and personalize the content and advertising you see.
Visit our Privacy Policy to learn more. By continuing to use the site, you agree to this use of cookies and data.
  • In Österreich
  • Länderverzeichnis
  • Für 7 Tage
  • Wassertemperatur
  • Wetterkarte
  • News
  • Widgets
  • user-avatar
    Anmelden

    Stündliche Wetter Cuautepec de Hinojosa

    Heute, 24 Januar, Freitag

    Zeit Temperatur Niederschläge Wind Luftdruck Luftfeuchtigkeit
    00:00 +11°C° 0.2 mm 1 m/S 580 mmHg 90%
    01:00 +11°C° 0.2 mm 1 m/S 579 mmHg 91%
    02:00 +10°C° 0.2 mm 1 m/S 579 mmHg 91%
    03:00 +10°C° 0.1 mm 1 m/S 579 mmHg 92%
    04:00 +10°C° 0.1 mm 1 m/S 579 mmHg 93%
    05:00 +10°C° 0.1 mm 1 m/S 579 mmHg 94%
    06:00 +10°C° 0 mm 1 m/S 580 mmHg 90%
    07:00 +11°C° 0 mm 1 m/S 581 mmHg 86%
    08:00 +11°C° 0 mm 1 m/S 582 mmHg 83%
    09:00 +13°C° 0.1 mm 1 m/S 582 mmHg 78%
    10:00 +14°C° 0.1 mm 1 m/S 582 mmHg 73%
    11:00 +15°C° 0.1 mm 2 m/S 583 mmHg 68%
    12:00 +14°C° 0.4 mm 2 m/S 582 mmHg 72%
    13:00 +14°C° 0.4 mm 2 m/S 581 mmHg 76%
    14:00 +14°C° 0.4 mm 2 m/S 580 mmHg 80%
    15:00 +13°C° 0.3 mm 2 m/S 580 mmHg 84%
    16:00 +12°C° 0.3 mm 2 m/S 580 mmHg 88%
    17:00 +12°C° 0.3 mm 2 m/S 580 mmHg 92%
    18:00 +10°C° 0.1 mm 2 m/S 580 mmHg 93%
    19:00 +10°C° 0.1 mm 2 m/S 581 mmHg 94%
    20:00 +10°C° 0.1 mm 2 m/S 581 mmHg 95%
    21:00 +11°C° 0 mm 1 m/S 581 mmHg 95%
    22:00 +11°C° 0 mm 1 m/S 581 mmHg 95%
    23:00 +11°C° 0 mm 1 m/S 581 mmHg 95%

    Morgen, 25 Januar, Samstag

    Zeit Temperatur Niederschläge Wind Luftdruck Luftfeuchtigkeit
    00:00 +10°C° 0 mm 1 m/S 580 mmHg 95%
    01:00 +10°C° 0 mm 1 m/S 580 mmHg 94%
    02:00 +10°C° 0 mm 1 m/S 579 mmHg 93%
    03:00 +10°C° 0 mm 1 m/S 579 mmHg 93%
    04:00 +9°C° 0 mm 1 m/S 579 mmHg 93%
    05:00 +9°C° 0 mm 1 m/S 579 mmHg 94%
    06:00 +10°C° 0 mm 1 m/S 580 mmHg 88%
    07:00 +11°C° 0 mm 1 m/S 581 mmHg 83%
    08:00 +13°C° 0 mm 1 m/S 582 mmHg 78%
    09:00 +14°C° 0 mm 1 m/S 583 mmHg 71%
    10:00 +16°C° 0 mm 2 m/S 583 mmHg 64%
    11:00 +18°C° 0 mm 2 m/S 584 mmHg 57%
    12:00 +18°C° 0 mm 2 m/S 583 mmHg 56%
    13:00 +18°C° 0 mm 3 m/S 583 mmHg 56%
    14:00 +19°C° 0 mm 3 m/S 582 mmHg 55%
    15:00 +17°C° 0 mm 3 m/S 581 mmHg 61%
    16:00 +16°C° 0 mm 2 m/S 581 mmHg 67%
    17:00 +15°C° 0 mm 2 m/S 580 mmHg 73%
    18:00 +14°C° 0 mm 2 m/S 580 mmHg 75%
    19:00 +13°C° 0 mm 2 m/S 580 mmHg 76%
    20:00 +12°C° 0 mm 1 m/S 581 mmHg 78%
    21:00 +12°C° 0 mm 2 m/S 580 mmHg 78%
    22:00 +12°C° 0 mm 2 m/S 580 mmHg 78%
    23:00 +12°C° 0 mm 2 m/S 580 mmHg 77%

    übermorgen, 26 Januar, Sonntag

    Zeit Temperatur Niederschläge Wind Luftdruck Luftfeuchtigkeit
    00:00 +10°C° 0 mm 2 m/S 580 mmHg 79%
    01:00 +10°C° 0 mm 2 m/S 579 mmHg 80%
    02:00 +9°C° 0 mm 2 m/S 579 mmHg 81%
    03:00 +9°C° 0 mm 2 m/S 579 mmHg 82%
    04:00 +9°C° 0 mm 2 m/S 579 mmHg 83%
    05:00 +8°C° 0 mm 2 m/S 579 mmHg 84%
    06:00 +10°C° 0 mm 2 m/S 580 mmHg 79%
    07:00 +12°C° 0 mm 2 m/S 581 mmHg 73%
    08:00 +14°C° 0 mm 1 m/S 582 mmHg 68%
    09:00 +16°C° 0 mm 2 m/S 583 mmHg 60%
    10:00 +17°C° 0 mm 2 m/S 583 mmHg 52%
    11:00 +19°C° 0 mm 2 m/S 584 mmHg 44%
    12:00 +19°C° 0.1 mm 3 m/S 583 mmHg 46%
    13:00 +19°C° 0.1 mm 3 m/S 582 mmHg 49%
    14:00 +18°C° 0.1 mm 3 m/S 581 mmHg 51%
    15:00 +17°C° 0.4 mm 2 m/S 581 mmHg 57%
    16:00 +16°C° 0.4 mm 2 m/S 581 mmHg 63%
    17:00 +15°C° 0.4 mm 2 m/S 580 mmHg 69%
    18:00 +14°C° 0.1 mm 1 m/S 580 mmHg 70%
    19:00 +14°C° 0.1 mm 1 m/S 581 mmHg 72%
    20:00 +13°C° 0.1 mm 1 m/S 581 mmHg 74%
    21:00 +12°C° 0.1 mm 1 m/S 580 mmHg 78%
    22:00 +11°C° 0.1 mm 0 m/S 580 mmHg 82%
    23:00 +10°C° 0.1 mm 0 m/S 580 mmHg 86%

    27 Januar, Montag

    Zeit Temperatur Niederschläge Wind Luftdruck Luftfeuchtigkeit
    00:00 +9°C° 0 mm 0 m/S 579 mmHg 87%
    01:00 +9°C° 0 mm 0 m/S 579 mmHg 88%
    02:00 +9°C° 0 mm 0 m/S 578 mmHg 89%
    03:00 +8°C° 0 mm 0 m/S 578 mmHg 88%
    04:00 +9°C° 0 mm 1 m/S 578 mmHg 88%
    05:00 +9°C° 0 mm 1 m/S 578 mmHg 87%
    06:00 +11°C° 0 mm 1 m/S 580 mmHg 81%
    07:00 +12°C° 0 mm 1 m/S 581 mmHg 75%
    08:00 +14°C° 0 mm 1 m/S 582 mmHg 68%
    09:00 +15°C° 0 mm 1 m/S 582 mmHg 60%
    10:00 +17°C° 0 mm 2 m/S 583 mmHg 51%
    11:00 +19°C° 0 mm 2 m/S 583 mmHg 43%
    12:00 +19°C° 0 mm 3 m/S 583 mmHg 42%
    13:00 +19°C° 0 mm 3 m/S 582 mmHg 41%
    14:00 +20°C° 0 mm 3 m/S 581 mmHg 40%
    15:00 +18°C° 0.1 mm 2 m/S 581 mmHg 49%
    16:00 +17°C° 0.1 mm 2 m/S 580 mmHg 57%
    17:00 +15°C° 0.1 mm 1 m/S 579 mmHg 66%
    18:00 +14°C° 0 mm 1 m/S 579 mmHg 69%
    19:00 +13°C° 0 mm 1 m/S 579 mmHg 73%
    20:00 +12°C° 0 mm 1 m/S 579 mmHg 76%
    21:00 +12°C° 0 mm 1 m/S 579 mmHg 71%
    22:00 +12°C° 0 mm 2 m/S 579 mmHg 67%
    23:00 +10°C° 0 mm 2 m/S 579 mmHg 62%

    28 Januar, Dienstag

    Zeit Temperatur Niederschläge Wind Luftdruck Luftfeuchtigkeit
    00:00 +10°C° 0 mm 2 m/S 578 mmHg 63%
    01:00 +10°C° 0 mm 2 m/S 578 mmHg 63%
    02:00 +9°C° 0 mm 2 m/S 578 mmHg 63%
    03:00 +9°C° 0 mm 2 m/S 578 mmHg 63%
    04:00 +9°C° 0 mm 2 m/S 577 mmHg 64%
    05:00 +8°C° 0 mm 2 m/S 577 mmHg 64%
    06:00 +11°C° 0 mm 1 m/S 579 mmHg 59%
    07:00 +13°C° 0 mm 1 m/S 580 mmHg 54%
    08:00 +14°C° 0 mm 1 m/S 581 mmHg 49%
    09:00 +16°C° 0 mm 1 m/S 582 mmHg 43%
    10:00 +19°C° 0 mm 1 m/S 582 mmHg 37%
    11:00 +21°C° 0 mm 1 m/S 583 mmHg 30%
    12:00 +20°C° 0 mm 2 m/S 582 mmHg 33%
    13:00 +20°C° 0 mm 2 m/S 582 mmHg 36%
    14:00 +19°C° 0 mm 3 m/S 581 mmHg 38%
    15:00 +17°C° 0.1 mm 3 m/S 580 mmHg 53%
    16:00 +14°C° 0.1 mm 3 m/S 580 mmHg 68%
    17:00 +14°C° 0.1 mm 2 m/S 579 mmHg 82%
    18:00 +13°C° 0.2 mm 2 m/S 580 mmHg 85%
    19:00 +12°C° 0.2 mm 2 m/S 580 mmHg 87%
    20:00 +12°C° 0.2 mm 2 m/S 580 mmHg 90%
    21:00 +10°C° 0.1 mm 2 m/S 580 mmHg 91%
    22:00 +10°C° 0.1 mm 2 m/S 580 mmHg 92%
    23:00 +10°C° 0.1 mm 2 m/S 580 mmHg 93%

    29 Januar, Mittwoch

    Zeit Temperatur Niederschläge Wind Luftdruck Luftfeuchtigkeit
    00:00 +9°C° 0 mm 2 m/S 580 mmHg 93%
    01:00 +9°C° 0 mm 2 m/S 579 mmHg 93%
    02:00 +8°C° 0 mm 2 m/S 579 mmHg 93%
    03:00 +9°C° 0 mm 1 m/S 579 mmHg 93%
    04:00 +8°C° 0 mm 1 m/S 579 mmHg 93%
    05:00 +8°C° 0 mm 1 m/S 579 mmHg 93%
    06:00 +9°C° 0 mm 1 m/S 579 mmHg 88%
    07:00 +9°C° 0 mm 1 m/S 580 mmHg 84%
    08:00 +10°C° 0 mm 1 m/S 581 mmHg 80%
    09:00 +12°C° 0 mm 2 m/S 581 mmHg 72%
    10:00 +13°C° 0 mm 3 m/S 582 mmHg 63%
    11:00 +15°C° 0 mm 4 m/S 582 mmHg 55%
    12:00 +15°C° 0 mm 4 m/S 582 mmHg 55%
    13:00 +15°C° 0 mm 4 m/S 581 mmHg 56%
    14:00 +15°C° 0 mm 4 m/S 580 mmHg 56%
    15:00 +14°C° 0 mm 3 m/S 579 mmHg 60%
    16:00 +13°C° 0 mm 2 m/S 579 mmHg 65%
    17:00 +12°C° 0 mm 2 m/S 578 mmHg 69%
    18:00 +12°C° 0 mm 2 m/S 578 mmHg 70%
    19:00 +10°C° 0 mm 2 m/S 578 mmHg 72%
    20:00 +10°C° 0 mm 2 m/S 578 mmHg 73%
    21:00 +9°C° 0 mm 2 m/S 578 mmHg 72%
    22:00 +9°C° 0 mm 2 m/S 578 mmHg 71%
    23:00 +9°C° 0 mm 2 m/S 578 mmHg 70%
    Mehr zeigen